TimeEDT,TemperatureF,Dew PointF,Humidity,Sea Level PressureIn,VisibilityMPH,Wind Direction,Wind SpeedMPH,Gust SpeedMPH,PrecipitationIn,Events,Conditions,WindDirDegrees,DateUTC
12:15 AM,58.1,29.1,33,29.79,10.0,WSW,6.9,-,N/A,,Clear,240,2014-03-11 04:15:00
12:35 AM,56.7,30.2,37,29.78,10.0,SW,8.1,-,N/A,,Clear,230,2014-03-11 04:35:00
12:55 AM,54.7,32.0,42,29.77,10.0,SW,8.1,-,N/A,,Clear,230,2014-03-11 04:55:00
1:15 AM,56.3,31.1,38,29.77,10.0,WSW,5.8,-,N/A,,Clear,240,2014-03-11 05:15:00
1:35 AM,55.8,31.5,40,29.77,10.0,WSW,5.8,-,N/A,,Clear,240,2014-03-11 05:35:00
1:55 AM,55.6,31.6,40,29.77,10.0,WSW,4.6,-,N/A,,Clear,250,2014-03-11 05:55:00
2:15 AM,56.5,31.1,38,29.77,10.0,West,4.6,-,N/A,,Clear,260,2014-03-11 06:15:00
2:35 AM,56.3,30.9,38,29.77,10.0,Calm,Calm,-,N/A,,Clear,0,2014-03-11 06:35:00
2:55 AM,56.8,30.2,36,29.76,10.0,West,4.6,-,N/A,,Clear,270,2014-03-11 06:55:00
3:15 AM,56.7,29.8,36,29.76,10.0,WSW,3.5,-,N/A,,Clear,250,2014-03-11 07:15:00
3:35 AM,55.6,30.2,38,29.76,10.0,West,4.6,-,N/A,,Clear,270,2014-03-11 07:35:00
3:55 AM,53.8,30.7,41,29.76,10.0,WSW,5.8,-,N/A,,Clear,250,2014-03-11 07:55:00
4:15 AM,54.0,31.1,42,29.75,10.0,WSW,4.6,-,N/A,,Clear,250,2014-03-11 08:15:00
4:35 AM,50.7,32.0,49,29.75,10.0,WSW,5.8,-,N/A,,Clear,240,2014-03-11 08:35:00
4:55 AM,51.8,31.8,47,29.75,10.0,WSW,3.5,-,N/A,,Clear,250,2014-03-11 08:55:00
5:15 AM,51.1,31.8,48,29.76,10.0,WSW,3.5,-,N/A,,Clear,250,2014-03-11 09:15:00
5:35 AM,51.1,32.0,48,29.76,10.0,WSW,3.5,-,N/A,,Clear,250,2014-03-11 09:35:00
5:55 AM,47.7,32.7,56,29.76,10.0,SW,4.6,-,N/A,,Clear,220,2014-03-11 09:55:00
6:15 AM,45.7,33.6,63,29.75,10.0,Calm,Calm,-,N/A,,Clear,0,2014-03-11 10:15:00
6:35 AM,46.0,33.4,61,29.75,10.0,SSW,3.5,-,N/A,,Clear,210,2014-03-11 10:35:00
6:55 AM,44.1,34.0,68,29.76,10.0,SW,3.5,-,N/A,,Clear,230,2014-03-11 10:55:00
7:15 AM,45.7,33.8,63,29.76,10.0,SW,3.5,-,N/A,,Clear,220,2014-03-11 11:15:00
7:35 AM,44.8,34.0,66,29.76,10.0,Calm,Calm,-,N/A,,Clear,0,2014-03-11 11:35:00
8:00 AM,46.2,33.4,61,29.75,10.0,SSW,3.5,-,N/A,,Clear,210,2014-03-11 12:00:00
8:15 AM,43.0,35.6,75,29.77,10.0,SW,6.9,-,N/A,,Clear,220,2014-03-11 12:15:00
8:35 AM,49.6,36.0,59,29.77,10.0,SW,4.6,-,N/A,,Clear,230,2014-03-11 12:35:00
8:55 AM,52.7,37.2,56,29.78,10.0,SW,4.6,-,N/A,,Clear,220,2014-03-11 12:55:00
9:15 AM,56.7,36.0,46,29.79,10.0,West,3.5,-,N/A,,Clear,260,2014-03-11 13:15:00
9:35 AM,58.8,36.1,43,29.79,10.0,WSW,3.5,-,N/A,,Clear,250,2014-03-11 13:35:00
9:55 AM,62.1,36.0,38,29.79,10.0,West,4.6,-,N/A,,Clear,260,2014-03-11 13:55:00
10:15 AM,64.4,35.8,35,29.79,10.0,NW,5.8,-,N/A,,Clear,320,2014-03-11 14:15:00
10:35 AM,66.2,34.7,31,29.79,10.0,Calm,Calm,-,N/A,,Clear,0,2014-03-11 14:35:00
10:55 AM,67.6,34.7,30,29.79,10.0,West,5.8,-,N/A,,Clear,270,2014-03-11 14:55:00
11:15 AM,69.1,34.0,27,29.79,10.0,WNW,8.1,-,N/A,,Clear,290,2014-03-11 15:15:00
11:35 AM,69.1,33.3,27,29.79,10.0,West,8.1,-,N/A,,Clear,270,2014-03-11 15:35:00
11:55 AM,70.3,31.6,24,29.79,10.0,WNW,5.8,-,N/A,,Clear,300,2014-03-11 15:55:00
12:15 PM,71.6,32.0,23,29.79,10.0,WSW,6.9,-,N/A,,Clear,250,2014-03-11 16:15:00
12:35 PM,71.4,30.4,22,29.78,10.0,West,5.8,-,N/A,,Clear,280,2014-03-11 16:35:00
12:55 PM,72.5,30.7,21,29.76,10.0,WSW,5.8,-,N/A,,Clear,240,2014-03-11 16:55:00
1:15 PM,73.4,31.3,21,29.76,10.0,SSW,4.6,-,N/A,,Clear,210,2014-03-11 17:15:00
1:35 PM,73.4,30.9,21,29.74,10.0,SSW,8.1,-,N/A,,Clear,200,2014-03-11 17:35:00
1:55 PM,75.0,27.7,17,29.73,10.0,West,4.6,-,N/A,,Clear,270,2014-03-11 17:55:00
2:15 PM,75.7,27.9,17,29.72,10.0,SSW,3.5,-,N/A,,Clear,200,2014-03-11 18:15:00
2:35 PM,76.3,27.1,16,29.70,10.0,Calm,Calm,-,N/A,,Clear,0,2014-03-11 18:35:00
2:55 PM,77.4,28.2,16,29.69,10.0,WSW,4.6,-,N/A,,Clear,240,2014-03-11 18:55:00
3:15 PM,77.4,28.2,16,29.68,10.0,South,9.2,-,N/A,,Clear,180,2014-03-11 19:15:00
3:35 PM,77.9,28.8,16,29.68,10.0,SSW,6.9,-,N/A,,Clear,210,2014-03-11 19:35:00
3:55 PM,77.9,28.9,17,29.68,10.0,SW,9.2,16.1,N/A,,Clear,230,2014-03-11 19:55:00
4:15 PM,77.9,28.6,16,29.67,10.0,SW,8.1,-,N/A,,Clear,220,2014-03-11 20:15:00
4:35 PM,77.9,27.7,16,29.67,10.0,WSW,8.1,-,N/A,,Clear,240,2014-03-11 20:35:00
4:55 PM,77.9,26.4,15,29.66,10.0,SSW,8.1,-,N/A,,Clear,200,2014-03-11 20:55:00
5:15 PM,77.4,26.4,15,29.66,10.0,South,10.4,-,N/A,,Clear,190,2014-03-11 21:15:00
5:35 PM,77.2,26.6,15,29.66,10.0,SSW,9.2,-,N/A,,Clear,210,2014-03-11 21:35:00
5:55 PM,76.3,27.9,17,29.66,10.0,South,10.4,-,N/A,,Clear,190,2014-03-11 21:55:00
6:15 PM,75.2,29.7,19,29.66,10.0,SSW,10.4,-,N/A,,Clear,200,2014-03-11 22:15:00
6:35 PM,74.3,29.1,19,29.66,10.0,SSW,11.5,-,N/A,,Clear,200,2014-03-11 22:35:00
6:55 PM,72.3,30.2,21,29.67,10.0,SSW,6.9,-,N/A,,Clear,200,2014-03-11 22:55:00
7:15 PM,69.1,32.0,25,29.67,10.0,South,4.6,-,N/A,,Clear,190,2014-03-11 23:15:00
7:35 PM,67.3,32.2,27,29.68,10.0,SSW,4.6,-,N/A,,Clear,200,2014-03-11 23:35:00
7:55 PM,64.4,33.6,32,29.68,10.0,South,4.6,-,N/A,,Clear,190,2014-03-11 23:55:00
8:15 PM,64.8,33.3,31,29.69,10.0,SSW,3.5,-,N/A,,Clear,200,2014-03-12 00:15:00
8:35 PM,62.6,33.8,34,29.69,10.0,South,4.6,-,N/A,,Clear,190,2014-03-12 00:35:00
8:55 PM,59.9,36.3,41,29.69,10.0,South,4.6,-,N/A,,Clear,180,2014-03-12 00:55:00
9:15 PM,59.7,35.8,41,29.69,10.0,South,4.6,-,N/A,,Clear,190,2014-03-12 01:15:00
9:35 PM,59.4,36.1,42,29.70,10.0,SSW,5.8,-,N/A,,Clear,210,2014-03-12 01:35:00
9:55 PM,58.8,37.2,45,29.70,10.0,SSW,5.8,-,N/A,,Clear,200,2014-03-12 01:55:00
10:15 PM,59.4,36.0,42,29.69,10.0,SSW,4.6,-,N/A,,Clear,200,2014-03-12 02:15:00
10:35 PM,59.7,35.4,40,29.69,10.0,South,4.6,-,N/A,,Clear,190,2014-03-12 02:35:00
10:55 PM,56.8,37.4,48,29.69,10.0,SSW,5.8,-,N/A,,Clear,210,2014-03-12 02:55:00
11:15 PM,57.6,37.4,47,29.70,10.0,SSW,6.9,-,N/A,,Clear,210,2014-03-12 03:15:00
11:35 PM,56.5,38.3,51,29.70,10.0,South,5.8,-,N/A,,Clear,190,2014-03-12 03:35:00
11:55 PM,56.5,38.3,51,29.69,10.0,South,4.6,-,N/A,,Clear,190,2014-03-12 03:55:00